Probability
0 0 0 0 0 0 0 0 0 0 0 0 0 0 1 0 0 1 2 3 3 3 4 5 5 4 4 4 3 1 0 0 0 0 0 0 0 0 0 0 0 0 0
0 0 0 0 0 0 0 0 0 0 0 0 0 0 1 0 0 1 2 2 2 3 4 5 5 6 5 5 3 2 1 1 1 1 1 0 0 0 0 0 0 0 0
0 0 0 0 0 0 0 0 0 0 0 0 0 0 0 0 1 1 1 1 2 3 4 6 7 7 6 4 3 3 3 2 2 2 2 1 1 1 0 0 0 0 0
0 0 0 0 0 0 0 1 1 1 2 1 1 0 0 1 2 2 1 1 1 2 3 5 7 7 5 3 2 3 3 3 2 2 2 2 2 1 0 0 0 0 0
0 0 0 0 0 0 0 1 2 2 3 3 2 1 1 1 3 3 3 1 0 0 1 2 3 4 4 3 3 3 3 3 3 3 3 2 1 1 0 0 0 0 0
0 0 0 0 0 0 0 1 1 2 2 2 2 2 2 2 3 3 3 1 0 0 0 0 1 1 2 3 3 3 3 3 3 3 3 2 1 1 0 0 0 0 0
0 0 0 0 0 0 0 0 0 1 1 1 1 1 1 2 3 3 3 2 1 1 0 0 0 0 1 2 3 3 3 3 3 3 2 1 1 0 0 0 0 0 0
0 0 0 0 0 0 0 0 0 0 0 0 0 0 0 1 1 2 3 3 3 2 1 1 0 0 0 1 1 2 3 3 3 2 1 1 1 0 0 0 0 0 0
0 0 0 0 0 0 0 0 0 0 0 0 0 0 0 0 0 1 1 2 3 3 3 2 1 1 0 0 0 1 3 3 3 2 2 3 2 0 0 0 0 0 0
1 0 0 0 0 0 0 0 0 0 0 0 0 0 0 0 0 0 0 1 2 3 3 2 1 0 0 0 0 1 2 2 2 2 3 4 3 1 0 0 0 0 0
1 0 0 0 0 0 0 0 0 0 0 0 0 0 0 0 0 0 0 0 2 3 3 2 1 0 0 1 1 1 1 1 1 1 2 3 3 2 1 1 1 0 0
1 0 1 1 1 1 1 1 1 0 0 0 0 0 0 0 0 0 0 0 2 3 3 3 2 1 1 1 2 2 1 0 0 0 1 1 2 2 2 2 2 1 0
1 1 2 3 3 2 2 2 2 1 1 1 0 0 0 0 0 0 0 0 1 3 3 3 3 2 2 1 1 1 1 0 0 0 0 0 1 1 2 2 2 1 0
2 2 3 3 3 3 3 4 3 3 2 2 1 1 1 1 0 1 1 1 2 3 3 3 3 2 1 0 0 0 0 0 0 0 0 0 0 0 1 1 1 0 0
2 2 2 3 3 3 4 4 4 3 3 3 3 2 2 2 2 3 4 4 5 5 5 4 3 2 1 0 0 0 0 0 0 0 0 0 0 0 0 0 0 0 0
1 1 2 2 3 3 3 4 3 3 3 3 3 4 5 5 6 6 7 7 8 8 7 5 3 1 0 0 0 0 0 0 0 0 0 0 0 0 0 0 0 0 0
2 1 1 1 1 2 2 2 3 3 4 4 5 6 8 8 9 10 10 10 10 10 9 5 3 1 0 0 0 0 0 0 0 0 0 0 0 0 0 0 0 0 0
2 1 0 0 0 1 1 1 2 3 5 5 6 8 9 10 10 12 12 12 12 11 10 7 4 1 0 0 0 0 0 0 0 0 0 0 0 0 0 0 0 0 0
2 1 1 1 1 1 1 1 2 3 5 6 7 9 10 10 11 12 13 13 13 12 11 9 6 3 1 0 0 0 0 0 0 0 0 0 0 0 0 0 0 0 0
4 4 4 4 5 4 3 3 4 4 5 6 7 9 10 11 12 13 13 12 11 11 11 10 8 5 2 1 1 0 0 0 0 0 1 1 1 0 0 0 0 0 0
9 10 10 9 8 7 5 5 6 7 8 8 9 10 11 11 11 11 10 10 9 9 9 8 7 5 4 3 2 1 0 0 0 0 1 2 2 1 0 0 0 0 0
14 15 15 13 10 7 5 5 7 10 10 11 12 12 12 12 10 9 7 7 8 8 8 7 5 4 4 4 3 2 1 0 0 0 1 2 2 1 0 0 0 0 0
18 18 18 15 11 8 6 5 6 9 11 12 13 13 13 12 10 8 6 5 7 9 8 6 5 4 4 3 3 3 2 1 0 0 1 1 1 1 0 0 0 0 0
21 20 20 18 15 12 8 6 6 7 10 12 13 13 13 11 10 7 5 5 7 8 8 7 6 5 4 3 3 3 3 2 0 0 0 0 0 0 0 0 0 0 0
23 22 22 22 20 17 12 8 6 8 10 11 12 13 13 12 9 6 4 6 6 6 6 6 6 6 5 3 3 3 3 2 1 0 0 1 1 1 0 0 0 0 0
24 23 23 24 23 19 14 9 7 8 9 11 12 12 14 14 11 5 4 6 6 5 4 6 6 5 5 2 2 3 3 2 2 1 0 1 2 2 1 0 0 0 0
Wind_Speed
2 2 1 1 2 1 2 2 1 1 1 1 1 1 1 1 2 2 2 7 7 8 9 9 9 9 9 8 9 8 8 8 8 9 9 10 10 10 10 10 11 11 10
3 2 2 1 1 2 2 2 1 1 1 0 0 1 1 1 2 2 2 3 6 6 7 7 7 7 8 8 8 8 8 8 8 8 9 9 9 9 10 10 10 10 10
3 3 2 1 1 1 1 1 0 0 0 0 0 1 1 1 2 3 2 1 2 4 5 5 5 5 6 7 7 7 7 7 7 7 8 9 9 9 9 10 9 9 8
3 2 2 1 1 1 1 1 1 1 0 1 1 1 1 1 2 2 2 2 1 1 2 3 3 2 4 4 5 5 5 6 6 6 7 7 7 8 8 9 9 8 8
2 2 1 1 0 1 1 1 1 1 1 0 1 1 1 1 1 2 2 2 2 1 1 2 2 2 2 2 2 2 2 3 4 5 6 7 7 7 8 8 9 9 9
2 1 1 0 1 1 1 1 1 1 1 1 1 2 1 1 1 1 2 2 2 2 2 2 1 1 2 2 1 1 2 2 3 4 5 6 7 7 7 7 8 8 9
2 2 1 1 1 1 1 1 1 2 1 1 2 2 2 2 1 0 1 1 1 2 2 2 1 1 1 2 2 1 1 2 2 3 4 5 6 6 7 7 8 8 8
1 2 2 1 1 1 2 1 2 1 0 1 2 2 2 3 2 1 0 1 1 1 2 3 2 2 1 1 1 2 2 1 2 3 3 4 4 4 5 6 7 7 7
1 1 2 1 1 1 1 1 1 2 1 1 1 3 2 1 1 2 1 0 1 1 1 1 2 2 3 2 1 2 2 2 2 2 2 3 3 3 4 5 6 6 6
1 2 2 2 2 2 2 1 2 2 2 0 1 0 2 3 2 1 2 2 0 0 1 1 1 2 2 2 2 3 3 2 2 2 2 3 3 3 4 4 6 6 6
1 1 2 2 2 2 2 1 1 1 2 2 1 0 1 1 1 2 1 2 2 1 1 1 1 1 2 2 2 3 4 3 2 2 1 2 3 4 4 4 5 6 6
0 1 1 2 2 2 2 2 1 1 1 1 1 1 1 1 1 2 2 1 1 2 1 1 1 1 2 2 3 4 4 3 2 2 1 2 3 3 3 4 3 4 5
1 1 1 2 2 2 2 1 1 1 1 1 1 1 1 1 2 2 2 1 1 2 1 1 1 1 2 2 2 4 4 3 3 2 2 2 3 3 3 3 3 3 4
2 2 2 2 2 2 2 1 1 1 1 1 1 1 1 1 1 2 3 2 0 2 2 2 1 2 2 2 3 5 2 4 4 3 3 3 3 3 3 3 3 3 3
2 2 2 2 2 2 2 2 1 1 1 1 1 1 1 1 1 1 2 3 3 1 3 3 2 2 2 2 3 3 2 4 5 4 4 4 4 4 3 3 3 3 3
2 2 2 2 2 1 2 2 1 1 1 1 1 1 1 1 1 1 1 1 2 3 2 3 3 2 2 2 4 3 3 5 6 5 6 6 5 5 4 4 3 3 3
2 2 2 2 2 2 2 2 1 1 1 1 1 1 2 1 1 1 1 1 1 2 2 2 1 1 2 2 2 2 3 3 3 6 7 7 6 6 5 5 5 5 4
3 3 2 2 3 2 2 2 2 2 2 2 2 1 2 1 1 1 1 1 1 2 3 2 2 1 2 3 2 3 3 4 4 6 8 8 8 8 7 7 6 6 5
3 2 2 2 2 2 2 2 2 2 2 3 3 3 3 2 2 2 1 1 1 1 2 2 2 2 2 1 1 2 3 3 4 5 7 9 9 9 9 9 8 7 7
4 3 3 3 2 2 2 2 2 2 2 3 3 3 3 3 3 3 2 2 2 1 1 1 2 2 2 2 1 2 2 3 4 3 4 5 7 10 10 10 10 10 9
4 4 3 2 2 2 2 2 2 3 3 3 3 3 3 3 4 3 3 3 2 2 2 2 2 2 2 2 3 3 3 3 3 3 2 3 4 4 5 8 10 11 10
4 3 3 3 3 3 4 5 4 3 3 3 3 3 3 3 4 5 5 5 5 4 4 3 3 3 5 4 3 3 3 2 3 3 3 4 3 4 4 4 8 10 11
4 4 4 4 4 5 5 5 4 3 3 3 4 3 3 3 3 3 4 4 5 7 7 6 5 6 5 5 4 4 4 4 5 3 3 4 3 4 4 5 8 9 10
5 5 5 5 5 5 5 5 5 3 3 4 4 4 4 4 4 3 3 3 4 5 6 6 7 7 6 6 6 6 6 5 4 3 3 3 3 4 4 4 7 9 10
5 5 4 5 5 5 6 6 5 3 3 4 4 4 4 5 6 5 3 4 5 6 6 7 8 8 8 7 5 2 2 2 3 4 3 3 3 3 3 4 5 8 9
5 4 4 5 5 5 6 7 6 3 3 4 3 4 5 6 7 6 5 5 6 7 5 4 5 6 5 6 6 6 5 4 3 4 4 3 3 2 2 3 3 3 5
Wind_Direction
142 153 163 165 177 178 183 205 237 237 254 258 232 188 165 176 177 180 178 184 188 190 193 194 196 201 204 205 206 207 207 209 206 204 205 208 208 208 205 206 208 206 203
141 150 157 174 185 190 193 197 199 204 260 223 210 146 155 157 150 151 149 172 182 187 190 194 200 208 211 208 211 212 212 212 212 209 208 210 210 210 208 208 207 207 207
138 141 143 162 196 184 166 151 142 100 247 199 24 88 123 129 142 144 140 143 166 178 187 197 206 213 210 208 214 214 213 216 217 216 209 209 210 211 212 211 207 204 206
130 130 132 176 209 146 138 140 118 99 36 39 41 49 98 108 134 137 139 152 158 171 184 190 187 185 197 207 220 221 222 227 223 218 208 204 205 207 209 210 204 202 201
126 127 149 209 201 86 101 149 130 142 137 85 88 74 76 108 130 139 139 155 153 154 167 180 178 171 174 182 208 226 235 238 228 220 217 214 212 209 208 208 207 203 202
129 126 149 178 96 90 77 86 107 103 128 118 87 68 43 84 115 136 162 163 162 168 172 170 171 193 181 174 182 201 225 236 233 229 227 223 219 214 208 207 209 209 208
139 130 138 117 110 106 119 110 106 81 57 93 79 42 20 31 63 169 167 153 165 181 158 171 175 176 175 168 181 196 226 243 236 234 230 223 220 216 209 209 211 211 210
150 142 139 138 130 107 89 87 107 100 350 89 113 92 22 1 357 357 107 157 174 164 165 180 166 168 164 152 174 181 204 228 233 227 216 207 205 199 200 206 206 206 204
151 135 134 139 133 123 129 114 126 125 139 326 122 136 139 215 310 344 6 60 128 143 206 168 168 176 177 171 176 181 180 195 206 206 200 197 188 183 188 192 190 189 189
176 159 136 131 129 124 126 141 132 135 133 174 316 97 156 156 147 336 338 345 24 191 217 195 179 179 172 166 178 187 183 183 186 200 200 191 185 184 186 190 191 192 191
180 172 145 136 138 142 150 144 125 133 142 154 167 76 60 71 119 139 257 318 336 302 257 221 185 181 182 179 186 193 188 186 189 201 213 202 195 197 196 195 199 203 204
281 287 149 155 159 161 164 168 154 146 148 145 148 141 143 149 180 152 182 235 273 290 293 265 189 190 190 183 192 184 181 183 185 194 208 195 189 189 193 200 198 195 201
216 248 193 166 176 180 178 163 139 155 163 150 169 186 177 188 176 157 151 194 250 286 318 306 239 202 195 186 207 185 182 170 170 175 177 172 182 190 196 198 206 209 207
208 206 184 176 184 180 171 152 146 187 165 176 195 185 197 227 175 165 167 160 151 321 316 281 283 227 214 193 206 187 191 187 186 189 191 185 188 196 202 210 219 222 223
200 192 178 173 175 168 168 156 157 218 190 200 223 218 215 248 196 197 172 160 157 201 269 258 253 245 216 191 197 194 197 199 197 199 201 202 204 201 207 215 225 231 226
191 167 166 172 174 175 167 155 172 201 173 227 214 211 233 243 238 212 191 182 169 175 228 247 233 230 207 202 196 201 213 208 209 207 208 213 215 213 212 210 213 219 216
181 175 176 174 175 185 184 168 195 195 191 245 256 216 234 228 223 236 195 188 191 168 209 268 244 225 185 206 212 217 219 222 226 217 215 219 220 220 217 214 215 218 217
180 178 175 174 186 194 193 192 213 212 206 229 244 231 246 234 227 232 202 211 218 194 182 229 256 229 215 215 215 216 223 224 227 222 219 224 225 223 220 220 220 218 215
179 176 165 174 190 199 202 208 208 217 220 231 236 229 238 216 238 234 218 223 230 210 182 190 240 235 237 223 212 243 238 248 235 227 223 227 228 227 228 227 224 218 217
178 182 183 188 191 194 201 208 208 219 235 246 246 234 227 215 220 225 224 226 216 196 190 197 239 250 243 236 190 226 254 253 248 234 230 227 228 229 232 232 228 224 222
193 187 181 194 200 203 217 214 217 224 232 246 254 242 232 221 218 220 221 218 203 203 203 209 233 249 247 225 224 218 229 253 256 233 232 235 225 230 234 237 234 231 227
194 184 191 198 214 235 236 223 212 225 227 228 244 254 243 234 242 238 235 223 203 198 207 212 226 232 242 233 228 220 217 226 262 238 205 241 211 230 236 231 232 228 225
196 198 205 204 219 237 234 226 218 216 223 227 231 239 252 255 241 245 251 243 235 231 213 204 221 231 232 225 214 224 220 219 236 228 191 243 222 235 239 237 227 222 223
201 209 215 216 221 240 232 228 222 223 236 235 230 226 233 252 249 229 241 257 258 253 238 223 226 234 233 226 211 212 220 235 255 243 185 227 231 232 239 236 229 222 225
212 216 213 215 222 243 235 223 213 220 240 248 243 236 230 245 251 227 226 251 269 275 264 243 240 245 245 237 216 199 214 220 257 250 206 207 230 235 236 238 233 223 225
218 218 223 224 223 235 232 221 209 215 237 255 262 254 240 242 249 229 223 234 253 264 273 278 267 268 262 256 231 211 207 211 234 251 220 199 216 202 261 248 234 231 229